When you browse on this site, cookies collect data to enhance your experience and personalize the content and advertising you see.
Visit our Privacy Policy to learn more. By continuing to use the site, you agree to this use of cookies and data.
  • In Romania
  • List of Countries
  • For 7 days
  • Water Temperature
  • Satellite Maps
  • Weather Map
  • Weather Widgets
  • user-avatar
    Login

    Hourly Weather Arnedillo

    Today, 22 February, Friday

    Time Temperature Precipitation Wind Pressure Humidity
    00:00 +8°C° 0 mm 1 mps 705 mmHg 50%
    01:00 +7°C° 0 mm 1 mps 705 mmHg 50%
    02:00 +7°C° 0 mm 1 mps 705 mmHg 51%
    03:00 +7°C° 0 mm 1 mps 705 mmHg 51%
    04:00 +6°C° 0 mm 1 mps 705 mmHg 50%
    05:00 +6°C° 0 mm 1 mps 705 mmHg 50%
    06:00 +6°C° 0 mm 1 mps 705 mmHg 50%
    07:00 +8°C° 0 mm 1 mps 705 mmHg 46%
    08:00 +9°C° 0 mm 1 mps 705 mmHg 42%
    09:00 +11°C° 0 mm 1 mps 706 mmHg 38%
    10:00 +13°C° 0 mm 1 mps 706 mmHg 33%
    11:00 +15°C° 0 mm 1 mps 706 mmHg 28%
    12:00 +18°C° 0 mm 1 mps 706 mmHg 23%
    13:00 +19°C° 0 mm 1 mps 705 mmHg 23%
    14:00 +19°C° 0 mm 1 mps 705 mmHg 22%
    15:00 +20°C° 0 mm 1 mps 705 mmHg 22%
    16:00 +18°C° 0 mm 1 mps 704 mmHg 29%
    17:00 +14°C° 0 mm 1 mps 704 mmHg 35%
    18:00 +12°C° 0 mm 1 mps 703 mmHg 42%
    19:00 +12°C° 0 mm 1 mps 704 mmHg 42%
    20:00 +10°C° 0 mm 2 mps 704 mmHg 42%
    21:00 +10°C° 0 mm 2 mps 704 mmHg 42%
    22:00 +9°C° 0 mm 2 mps 704 mmHg 42%
    23:00 +9°C° 0 mm 2 mps 704 mmHg 41%

    Tomorrow, 23 February, Saturday

    Time Temperature Precipitation Wind Pressure Humidity
    00:00 +9°C° 0 mm 2 mps 704 mmHg 41%
    01:00 +8°C° 0 mm 2 mps 704 mmHg 40%
    02:00 +8°C° 0 mm 2 mps 703 mmHg 39%
    03:00 +8°C° 0 mm 2 mps 703 mmHg 38%
    04:00 +7°C° 0 mm 2 mps 703 mmHg 38%
    05:00 +7°C° 0 mm 2 mps 703 mmHg 38%
    06:00 +7°C° 0 mm 2 mps 703 mmHg 38%
    07:00 +8°C° 0 mm 2 mps 704 mmHg 37%
    08:00 +11°C° 0 mm 1 mps 705 mmHg 36%
    09:00 +13°C° 0 mm 1 mps 705 mmHg 35%
    10:00 +14°C° 0 mm 1 mps 705 mmHg 32%
    11:00 +16°C° 0 mm 2 mps 705 mmHg 30%
    12:00 +18°C° 0 mm 2 mps 706 mmHg 27%
    13:00 +18°C° 0 mm 2 mps 705 mmHg 28%
    14:00 +18°C° 0 mm 3 mps 705 mmHg 29%
    15:00 +19°C° 0 mm 3 mps 705 mmHg 30%
    16:00 +17°C° 0 mm 3 mps 705 mmHg 36%
    17:00 +14°C° 0 mm 3 mps 705 mmHg 43%
    18:00 +12°C° 0 mm 3 mps 704 mmHg 50%
    19:00 +11°C° 0 mm 3 mps 705 mmHg 53%
    20:00 +10°C° 0 mm 3 mps 705 mmHg 55%
    21:00 +10°C° 0 mm 3 mps 705 mmHg 58%
    22:00 +9°C° 0 mm 3 mps 705 mmHg 58%
    23:00 +9°C° 0 mm 3 mps 705 mmHg 57%

    Day after tomorrow, 24 February, Sunday

    Time Temperature Precipitation Wind Pressure Humidity
    00:00 +8°C° 0 mm 3 mps 705 mmHg 57%
    01:00 +8°C° 0 mm 2 mps 705 mmHg 57%
    02:00 +7°C° 0 mm 2 mps 705 mmHg 57%
    03:00 +7°C° 0 mm 2 mps 705 mmHg 57%
    04:00 +7°C° 0 mm 2 mps 705 mmHg 58%
    05:00 +6°C° 0 mm 2 mps 705 mmHg 59%
    06:00 +6°C° 0 mm 2 mps 705 mmHg 60%
    07:00 +8°C° 0 mm 1 mps 706 mmHg 57%
    08:00 +10°C° 0 mm 1 mps 706 mmHg 53%
    09:00 +11°C° 0 mm 1 mps 706 mmHg 50%
    10:00 +12°C° 0 mm 1 mps 706 mmHg 47%
    11:00 +14°C° 0 mm 1 mps 707 mmHg 44%
    12:00 +15°C° 0 mm 1 mps 707 mmHg 42%
    13:00 +16°C° 0 mm 1 mps 706 mmHg 41%
    14:00 +16°C° 0 mm 1 mps 706 mmHg 41%
    15:00 +16°C° 0 mm 2 mps 705 mmHg 40%
    16:00 +15°C° 0 mm 1 mps 705 mmHg 46%
    17:00 +13°C° 0 mm 1 mps 705 mmHg 52%
    18:00 +11°C° 0 mm 1 mps 705 mmHg 58%
    19:00 +11°C° 0 mm 1 mps 705 mmHg 60%
    20:00 +9°C° 0 mm 0 mps 705 mmHg 62%
    21:00 +9°C° 0 mm 0 mps 706 mmHg 64%
    22:00 +8°C° 0 mm 0 mps 706 mmHg 65%
    23:00 +8°C° 0 mm 0 mps 706 mmHg 66%

    25 February, Monday

    Time Temperature Precipitation Wind Pressure Humidity
    00:00 +7°C° 0 mm 0 mps 706 mmHg 68%
    01:00 +8°C° 0 mm 1 mps 706 mmHg 69%
    02:00 +8°C° 0 mm 1 mps 706 mmHg 70%
    03:00 +7°C° 0 mm 1 mps 706 mmHg 72%
    04:00 +7°C° 0 mm 1 mps 706 mmHg 76%
    05:00 +6°C° 0 mm 1 mps 705 mmHg 80%
    06:00 +6°C° 0 mm 1 mps 705 mmHg 84%
    07:00 +7°C° 0 mm 1 mps 706 mmHg 80%
    08:00 +8°C° 0 mm 2 mps 706 mmHg 77%
    09:00 +9°C° 0 mm 2 mps 707 mmHg 74%
    10:00 +10°C° 0 mm 2 mps 707 mmHg 67%
    11:00 +12°C° 0 mm 3 mps 707 mmHg 61%
    12:00 +14°C° 0 mm 3 mps 707 mmHg 54%
    13:00 +14°C° 0 mm 3 mps 706 mmHg 51%
    14:00 +15°C° 0 mm 4 mps 706 mmHg 49%
    15:00 +17°C° 0 mm 4 mps 705 mmHg 46%
    16:00 +14°C° 0 mm 3 mps 705 mmHg 52%
    17:00 +13°C° 0 mm 3 mps 704 mmHg 58%
    18:00 +12°C° 0 mm 2 mps 704 mmHg 64%
    19:00 +10°C° 0 mm 2 mps 704 mmHg 66%
    20:00 +9°C° 0 mm 2 mps 704 mmHg 69%
    21:00 +9°C° 0 mm 2 mps 704 mmHg 72%
    22:00 +8°C° 0 mm 2 mps 704 mmHg 73%
    23:00 +8°C° 0 mm 2 mps 704 mmHg 73%

    26 February, Tuesday

    Time Temperature Precipitation Wind Pressure Humidity
    00:00 +8°C° 0 mm 2 mps 704 mmHg 73%
    01:00 +7°C° 0 mm 2 mps 704 mmHg 72%
    02:00 +7°C° 0 mm 2 mps 704 mmHg 71%
    03:00 +6°C° 0 mm 2 mps 703 mmHg 71%
    04:00 +6°C° 0 mm 2 mps 703 mmHg 69%
    05:00 +5°C° 0 mm 2 mps 703 mmHg 67%
    06:00 +5°C° 0 mm 2 mps 703 mmHg 65%
    07:00 +6°C° 0 mm 2 mps 703 mmHg 58%
    08:00 +8°C° 0 mm 3 mps 704 mmHg 51%
    09:00 +9°C° 0 mm 3 mps 704 mmHg 43%
    10:00 +11°C° 0 mm 4 mps 704 mmHg 39%
    11:00 +13°C° 0 mm 4 mps 704 mmHg 35%
    12:00 +14°C° 0 mm 5 mps 704 mmHg 31%
    13:00 +15°C° 0 mm 5 mps 704 mmHg 31%
    14:00 +15°C° 0 mm 5 mps 703 mmHg 30%
    15:00 +16°C° 0 mm 6 mps 703 mmHg 30%
    16:00 +14°C° 0 mm 5 mps 703 mmHg 35%
    17:00 +12°C° 0 mm 4 mps 703 mmHg 41%
    18:00 +11°C° 0 mm 3 mps 702 mmHg 46%
    19:00 +10°C° 0 mm 3 mps 703 mmHg 48%
    20:00 +9°C° 0 mm 2 mps 703 mmHg 50%
    21:00 +8°C° 0 mm 2 mps 703 mmHg 51%
    22:00 +8°C° 0 mm 2 mps 703 mmHg 52%
    23:00 +7°C° 0 mm 2 mps 703 mmHg 52%

    27 February, Wednesday

    Time Temperature Precipitation Wind Pressure Humidity
    00:00 +7°C° 0 mm 2 mps 703 mmHg 53%
    01:00 +6°C° 0 mm 2 mps 703 mmHg 52%
    02:00 +6°C° 0 mm 2 mps 703 mmHg 52%
    03:00 +6°C° 0 mm 2 mps 702 mmHg 52%
    04:00 +5°C° 0 mm 2 mps 702 mmHg 52%
    05:00 +5°C° 0 mm 2 mps 702 mmHg 52%
    06:00 +5°C° 0 mm 2 mps 702 mmHg 52%
    07:00 +6°C° 0 mm 2 mps 702 mmHg 48%
    08:00 +8°C° 0 mm 2 mps 703 mmHg 45%
    09:00 +10°C° 0 mm 2 mps 703 mmHg 41%
    10:00 +12°C° 0 mm 2 mps 703 mmHg 37%
    11:00 +13°C° 0 mm 3 mps 703 mmHg 32%
    12:00 +16°C° 0 mm 3 mps 703 mmHg 28%
    13:00 +16°C° 0 mm 3 mps 703 mmHg 26%
    14:00 +17°C° 0 mm 4 mps 702 mmHg 25%
    15:00 +18°C° 0 mm 4 mps 702 mmHg 24%
    16:00 +16°C° 0 mm 3 mps 701 mmHg 28%
    17:00 +13°C° 0 mm 3 mps 701 mmHg 33%
    18:00 +12°C° 0 mm 2 mps 701 mmHg 37%
    19:00 +10°C° 0 mm 2 mps 701 mmHg 38%
    20:00 +9°C° 0 mm 2 mps 701 mmHg 39%
    21:00 +9°C° 0 mm 2 mps 701 mmHg 40%
    22:00 +8°C° 0 mm 2 mps 701 mmHg 40%
    23:00 +9°C° 0 mm 1 mps 701 mmHg 41%
    Show more